This is the latest recevied weather packets stored in our database for station/object DC4THF-13. If no packets are shown the sender has not sent any weather packets the latest 10 day(s).
| Time | Temp. | Humidity | Pressure | Rain* | Wind** | Luminosity | Snow |
|---|---|---|---|---|---|---|---|
| 1787672568 | 25.56° C | 36% | 1010.4 hPa | 0 mm | - | - | - |
| 1787671965 | 25.56° C | 38% | 1010.4 hPa | 0 mm | - | - | - |
| 1787671362 | 25° C | 37% | 1010.4 hPa | 0 mm | - | - | - |
| 1787670758 | 25° C | 39% | 1010.2 hPa | 0 mm | - | - | - |
| 1787670154 | 23.89° C | 40% | 1010.1 hPa | 0 mm | - | - | - |
| 1787669551 | 23.89° C | 39% | 1010.2 hPa | 0 mm | - | - | - |
| 1787668947 | 24.44° C | 37% | 1010 hPa | 0 mm | - | - | - |
| 1787668343 | 25.56° C | 35% | 1010 hPa | 0 mm | - | - | - |
| 1787667740 | 26.11° C | 34% | 1009.9 hPa | 0 mm | - | - | - |
| 1787667136 | 26.67° C | 34% | 1010 hPa | 0 mm | - | - | - |
| 1787666533 | 26.67° C | 32% | 1009.8 hPa | 0 mm | - | - | - |
| 1787665990 | 26.67° C | 34% | 1009.9 hPa | 0 mm | - | - | - |
| 1787665386 | 26.67° C | 34% | 1009.9 hPa | 0 mm | - | - | - |
| 1787664783 | 26.67° C | 34% | 1009.8 hPa | 0 mm | - | - | - |
| 1787664179 | 26.67° C | 34% | 1009.7 hPa | 0 mm | - | - | - |
| 1787663576 | 26.67° C | 34% | 1009.7 hPa | 0 mm | - | - | - |
| 1787662972 | 26.11° C | 35% | 1009.8 hPa | 0 mm | - | - | - |
| 1787662368 | 26.11° C | 34% | 1010 hPa | 0 mm | - | - | - |
| 1787661765 | 26.11° C | 34% | 1010.1 hPa | 0 mm | - | - | - |
| 1787661162 | 26.11° C | 34% | 1010.1 hPa | 0 mm | - | - | - |
| 1787660559 | 26.67° C | 36% | 1010.1 hPa | 0 mm | - | - | - |
| 1787659956 | 26.11° C | 35% | 1010.3 hPa | 0 mm | - | - | - |
| 1787659353 | 26.11° C | 37% | 1010.4 hPa | 0 mm | - | - | - |
| 1787658750 | 25.56° C | 37% | 1010.6 hPa | 0 mm | - | - | - |
| 1787658147 | 25.56° C | 38% | 1010.5 hPa | 0 mm | - | - | - |
* Rain latest hour (hover to see other rain measurements)
** Current wind speed in m/s (hover to see current wind gust speed)